Vertical_Velocity
1 1 5 3 -6 -2 -4 -6 -4 -3 -3 -1 1 1 -3 -3 -2 -2 -9 -20 -10 3 1 -1 5 1 10 6 0 2 2 -0 -3 -1 -4 3 -0 3 2 -2 2 1 -1 -2 -6
-1 2 -1 0 1 1 4 1 2 -0 -1 -4 -4 -4 0 -0 2 -7 -9 4 3 4 -1 1 -1 4 4 2 1 2 4 -6 -3 -1 -1 0 -1 -0 -0 1 1 3 3 1 -2
-1 4 1 -7 0 -2 -2 -2 -3 -1 -5 -2 -0 2 2 4 -5 -12 18 6 10 9 1 2 4 10 3 4 -2 -2 -4 -3 -1 0 -0 0 -1 0 -0 -0 -4 -16 -4 0 -1
-1 3 -2 0 -2 -1 -2 -2 -2 -3 -2 -0 3 2 -3 8 -5 13 16 5 7 20 3 4 8 6 3 2 -2 4 -1 -2 -10 -0 1 -0 1 -1 0 -3 3 1 10 0 -4
-1 -1 -0 -1 -2 -2 -2 -2 -0 0 -0 1 -2 -3 5 3 -22 -2 8 -2 2 -5 14 -2 5 1 -1 -0 7 7 -3 1 -0 4 -1 1 -0 -0 -4 1 -1 1 0 5 6
-3 -2 1 -1 -2 -2 -3 -1 -1 -2 1 3 -1 -0 12 16 -16 -9 -1 -3 13 -0 -0 18 -8 -6 1 -2 3 -3 -2 -1 4 -4 0 -1 -0 0 -0 -1 2 6 -1 1 1
3 -4 -3 -2 -2 -1 -2 -2 -1 -0 6 3 0 6 16 -29 -16 -9 6 -5 7 2 5 -10 21 24 -1 2 -4 -5 3 4 1 -3 -2 -2 -4 -1 -1 1 1 4 6 4 2
-5 3 1 -1 1 -1 -3 -2 -2 -2 4 0 -4 9 -4 -22 -3 -5 8 -15 4 0 1 8 8 2 5 2 -2 3 10 4 -5 2 -3 -3 -15 -2 2 -3 0 0 3 2 5
1 0 -2 -3 -2 0 -0 -3 -4 2 -1 -3 -2 5 -9 1 -2 0 -2 -2 3 1 -1 3 1 -0 7 3 4 3 -1 3 2 -2 -0 -2 -4 -11 0 4 1 1 -1 2 4
-3 0 2 0 -1 -1 -1 -2 -12 -1 1 -1 -4 -0 0 -7 -2 -3 -6 3 0 -4 -2 6 1 2 3 5 -6 -5 4 1 -3 -1 3 5 -2 -1 1 -0 -3 -2 0 0 -3
1 -1 -4 -2 1 -2 -8 -20 -33 -17 -6 -3 -2 -0 1 -5 4 -9 11 6 3 -2 1 -0 3 -3 -9 -6 -5 0 1 -0 -2 0 -0 -4 -1 -1 0 5 2 2 0 -0 -4
-2 -0 1 -1 -0 -0 -1 -6 10 18 -12 1 1 0 4 4 -3 -4 3 8 2 -1 1 7 -4 -13 0 1 2 3 1 -3 0 1 2 1 -3 -2 0 -2 -5 -4 -0 1 3
1 -1 -3 1 -0 -1 -2 2 2 1 5 -15 0 1 1 3 -2 -10 2 -0 -1 2 -0 1 -15 3 4 2 5 -1 -0 -1 -4 1 0 -2 1 3 -0 2 4 4 3 4 -7
-5 -2 -3 -6 -3 -1 -2 4 3 3 -2 -14 -3 -2 0 4 -4 1 -3 -5 4 -6 -1 -1 -7 2 4 -0 0 6 -4 0 1 4 -4 -1 -4 1 -0 1 1 0 0 -2 -1
2 -2 2 -1 -3 -0 0 -1 2 0 -10 -13 -8 3 -9 5 -4 1 1 5 -3 -3 3 -11 0 4 2 -17 2 -14 1 -3 -0 2 0 2 1 -5 2 3 -2 -1 -0 -1 -1
-1 2 -2 1 -1 2 -2 0 1 -25 -15 -9 -2 -6 -5 -4 -1 -5 4 -1 1 1 1 -2 -0 3 -7 -2 1 -4 5 7 3 -0 8 -4 -4 -4 -3 -17 -1 0 1 -4 -4
-1 -2 -2 -1 -4 -3 -3 0 -17 -12 -10 -10 -3 -1 2 -2 -4 -0 -0 1 -3 -1 1 2 -2 -1 -3 3 -2 8 5 5 8 7 -0 0 1 -12 -1 -1 -4 -5 -2 -3 -1
-0 -0 -1 1 2 -3 -3 -13 -12 -6 -1 -4 1 -4 2 1 -4 -3 1 0 1 3 1 -1 -5 -1 -1 -5 -2 -4 -1 -4 -1 -0 1 -0 -2 -14 -3 -1 -2 -1 2 8 4
2 3 -4 0 0 -3 -2 -7 -9 0 3 2 -11 -0 -3 -1 6 1 0 -0 -2 -1 -1 1 -3 3 -0 -0 -9 5 5 1 -4 0 -4 -1 -8 -7 0 0 1 1 1 0 -2
-2 -2 -4 -0 -1 -4 -11 -1 -2 -0 1 -0 2 0 1 -1 0 0 1 -1 -0 -2 0 -0 1 -3 3 -4 4 -6 -2 1 -0 -1 1 -1 -1 -5 1 1 1 1 -1 2 3
-3 -3 1 0 -1 -5 -5 -4 -1 -2 7 2 -0 0 -1 1 3 -1 -2 -7 -1 0 0 -0 3 7 1 0 -2 6 1 1 -4 -0 -4 -1 -6 -2 1 0 -0 -1 -1 -0 0
-5 -6 -2 -4 -13 0 -1 -0 2 -2 1 -2 2 1 1 -0 0 0 2 3 1 3 0 -2 0 1 -3 -0 -1 -2 -1 -1 -4 0 -0 -2 -7 0 1 -0 0 -1 -0 -1 -1
-1 -4 -3 -2 -5 -2 -4 -1 1 -1 -1 -1 -0 2 1 1 1 1 -0 -5 2 1 0 -0 -1 0 2 2 -0 -1 2 -1 -1 -1 -0 -4 -4 -0 -0 -0 1 -0 0 -1 -0
-1 -8 -4 -4 -0 -1 1 -2 -3 -1 -1 0 -0 1 -1 -0 -1 -3 -2 -4 -1 2 1 0 -0 1 -6 -9 -5 -2 0 0 -4 -3 -2 -1 1 -0 -0 0 -0 1 1 1 1
-2 -2 1 -4 -5 -1 1 1 -0 -2 -1 0 -3 1 7 1 -1 -0 -1 -7 -5 -0 -2 -1 -0 -0 0 0 -1 -1 -1 0 -2 -2 -7 -3 -1 -1 1 0 1 1 1 -1 1
-1 -2 -0 -1 1 -2 -2 -3 1 -3 3 -4 0 -1 2 3 4 -0 5 0 2 -10 0 -3 0 0 -1 -0 -1 -0 1 -0 -0 1 -0 -0 -1 -1 0 0 -0 -0 -0 0 -1
1 2 -0 -0 -0 -2 -3 -3 -3 -0 -6 -1 4 5 0 -3 4 -2 2 -1 0 6 0 0 0 -3 -2 -0 -1 -7 -3 -1 -0 0 -6 -3 -5 -0 0 0 1 1 -0 0 -0
Height
1496 1494 1491 1488 1486 1483 1480 1478 1476 1473 1470 1467 1465 1462 1460 1457 1453 1451 1446 1448 1451 1454 1454 1455 1456 1457 1458 1459 1461 1463 1468 1463 1462 1462 1458 1453 1455 1457 1458 1462 1464 1466 1467 1470 1477
1494 1492 1489 1486 1483 1480 1476 1474 1472 1469 1467 1464 1462 1460 1456 1453 1448 1440 1441 1443 1445 1450 1451 1452 1453 1456 1455 1454 1458 1456 1456 1455 1457 1455 1454 1453 1455 1456 1458 1460 1463 1464 1465 1469 1474
1494 1491 1487 1484 1480 1477 1473 1470 1467 1465 1463 1460 1458 1456 1454 1450 1445 1436 1437 1437 1443 1445 1443 1448 1452 1454 1453 1450 1451 1450 1444 1451 1452 1453 1453 1452 1454 1457 1456 1461 1457 1456 1460 1465 1471
1493 1488 1484 1480 1476 1473 1470 1466 1462 1459 1458 1456 1454 1452 1450 1449 1448 1432 1431 1433 1435 1437 1437 1443 1448 1450 1448 1445 1445 1445 1445 1447 1451 1453 1453 1452 1453 1455 1455 1454 1454 1456 1454 1460 1468
1489 1486 1482 1477 1473 1468 1465 1461 1458 1455 1452 1451 1450 1448 1446 1442 1436 1432 1429 1430 1431 1434 1436 1439 1442 1445 1443 1438 1443 1443 1442 1444 1448 1451 1452 1451 1453 1454 1452 1453 1452 1453 1460 1463 1467
1487 1482 1478 1474 1470 1464 1461 1457 1453 1449 1446 1445 1444 1443 1441 1433 1431 1430 1429 1428 1430 1433 1433 1436 1437 1438 1440 1437 1438 1435 1440 1443 1444 1447 1450 1450 1453 1454 1452 1450 1452 1453 1457 1463 1466
1485 1481 1475 1470 1466 1462 1458 1453 1448 1443 1439 1438 1438 1437 1433 1429 1427 1427 1427 1425 1426 1428 1430 1432 1435 1437 1433 1433 1433 1435 1439 1440 1442 1444 1446 1449 1452 1451 1451 1450 1453 1456 1459 1463 1466
1483 1478 1474 1469 1465 1460 1454 1448 1443 1438 1434 1431 1431 1431 1425 1422 1423 1422 1420 1420 1420 1423 1425 1428 1431 1430 1431 1430 1429 1433 1437 1440 1433 1439 1445 1453 1450 1448 1447 1448 1453 1457 1460 1462 1467
1480 1475 1470 1466 1462 1457 1451 1444 1440 1434 1431 1429 1428 1428 1422 1419 1419 1419 1418 1417 1416 1417 1420 1425 1428 1425 1427 1431 1433 1429 1429 1437 1436 1435 1442 1446 1443 1441 1447 1447 1450 1454 1458 1462 1465
1478 1473 1469 1464 1459 1454 1448 1442 1437 1431 1430 1428 1427 1430 1421 1418 1417 1416 1417 1417 1417 1416 1418 1420 1422 1418 1420 1426 1418 1424 1428 1434 1434 1435 1437 1439 1439 1436 1439 1444 1446 1451 1455 1460 1462
1476 1472 1467 1463 1458 1452 1447 1440 1439 1435 1430 1431 1428 1425 1418 1418 1415 1410 1414 1416 1416 1417 1419 1415 1418 1408 1406 1413 1414 1420 1424 1427 1425 1427 1432 1433 1437 1437 1440 1441 1446 1448 1452 1456 1459
1473 1469 1464 1459 1455 1451 1448 1447 1447 1447 1431 1424 1421 1420 1416 1415 1411 1407 1408 1413 1413 1416 1416 1417 1407 1399 1411 1416 1421 1422 1421 1425 1424 1424 1429 1433 1434 1435 1438 1438 1439 1443 1448 1450 1456
1471 1467 1464 1458 1454 1451 1449 1449 1447 1443 1439 1423 1420 1417 1415 1414 1408 1403 1405 1407 1408 1412 1413 1409 1397 1408 1410 1412 1420 1419 1419 1419 1422 1423 1430 1433 1438 1435 1432 1434 1436 1439 1441 1446 1449
1467 1462 1458 1456 1455 1451 1449 1448 1445 1442 1445 1429 1420 1417 1415 1412 1407 1402 1402 1404 1405 1405 1406 1408 1406 1404 1406 1408 1413 1416 1410 1416 1422 1424 1427 1426 1434 1432 1426 1431 1433 1433 1437 1440 1445
1463 1459 1456 1452 1453 1451 1450 1445 1443 1443 1476 1426 1421 1418 1415 1412 1405 1401 1398 1400 1401 1402 1402 1403 1400 1400 1406 1395 1408 1403 1410 1418 1426 1421 1425 1430 1431 1423 1423 1427 1421 1423 1428 1433 1439
1465 1460 1457 1453 1452 1450 1447 1444 1442 1460 1475 1430 1422 1419 1414 1406 1403 1400 1397 1398 1400 1401 1401 1401 1398 1395 1402 1406 1403 1406 1412 1415 1422 1429 1415 1419 1417 1425 1422 1404 1413 1418 1421 1426 1433
1461 1459 1455 1453 1450 1447 1445 1443 1458 1470 1439 1430 1425 1420 1416 1409 1402 1401 1397 1396 1401 1405 1400 1398 1399 1395 1397 1405 1406 1404 1412 1405 1408 1414 1406 1418 1421 1400 1405 1406 1404 1407 1411 1418 1424
1460 1454 1453 1453 1450 1446 1444 1447 1474 1454 1444 1434 1429 1422 1417 1408 1403 1400 1394 1397 1396 1396 1394 1392 1408 1391 1388 1394 1397 1398 1401 1403 1396 1399 1416 1425 1414 1404 1398 1399 1402 1405 1409 1412 1416
1457 1454 1452 1451 1448 1445 1445 1469 1469 1450 1444 1439 1429 1424 1420 1411 1410 1403 1396 1391 1385 1390 1389 1386 1384 1378 1379 1385 1397 1401 1399 1407 1413 1420 1419 1424 1414 1401 1395 1398 1400 1401 1404 1407 1412
1457 1454 1453 1452 1448 1446 1450 1460 1456 1448 1444 1442 1438 1431 1426 1418 1413 1404 1397 1388 1385 1385 1387 1386 1380 1376 1380 1383 1395 1397 1405 1405 1406 1407 1410 1428 1417 1404 1393 1395 1397 1398 1400 1405 1410
1457 1455 1456 1454 1451 1448 1465 1466 1453 1446 1445 1443 1442 1434 1430 1426 1414 1407 1397 1389 1387 1383 1385 1384 1383 1378 1377 1379 1386 1393 1397 1401 1405 1409 1404 1417 1413 1402 1397 1398 1399 1398 1399 1401 1403
1458 1462 1459 1457 1457 1462 1466 1457 1452 1445 1443 1442 1438 1434 1430 1425 1418 1412 1404 1397 1390 1387 1380 1381 1384 1374 1376 1385 1387 1387 1393 1396 1396 1409 1422 1412 1417 1401 1401 1399 1398 1397 1397 1397 1398
1461 1459 1459 1457 1471 1471 1460 1457 1454 1448 1444 1441 1440 1438 1432 1427 1426 1412 1405 1395 1393 1388 1381 1381 1383 1379 1387 1390 1386 1388 1393 1399 1402 1411 1412 1411 1412 1402 1401 1400 1398 1397 1397 1396 1395
1461 1465 1460 1460 1464 1466 1462 1460 1455 1448 1445 1443 1441 1437 1435 1428 1421 1418 1410 1398 1394 1391 1382 1381 1384 1383 1392 1385 1392 1401 1399 1391 1394 1417 1409 1408 1403 1400 1401 1398 1397 1398 1397 1397 1397
1463 1466 1465 1467 1464 1466 1464 1463 1458 1454 1447 1443 1439 1440 1440 1434 1426 1422 1413 1406 1396 1393 1388 1388 1388 1387 1384 1383 1382 1393 1399 1396 1399 1402 1403 1400 1402 1402 1399 1399 1399 1399 1399 1399 1401
1468 1467 1465 1465 1464 1465 1463 1467 1460 1455 1453 1447 1444 1441 1438 1433 1427 1425 1424 1419 1408 1395 1394 1391 1388 1385 1386 1382 1382 1388 1392 1394 1398 1398 1393 1402 1401 1399 1400 1400 1400 1400 1401 1401 1403
1468 1467 1466 1466 1467 1467 1467 1464 1460 1457 1450 1446 1443 1441 1434 1429 1427 1420 1418 1416 1413 1409 1399 1398 1399 1401 1403 1388 1386 1401 1395 1393 1397 1398 1400 1406 1397 1400 1400 1399 1399 1401 1403 1403 1404